Index of /pub/simtelnet/win95/inetmisc

[ICO]NameLast modifiedSizeDescription

[DIR]Parent Directory  -  
[TXT]24hrcoin-sinchat.xml04-May-2009 12:40 9.4K 
[   ]32bssx.exe09-Feb-2004 00:00 573K 
[   ]ADailerSetup.EXE12-Aug-2003 00:00 1.0M 
[   ]ActiveWhois.exe07-Mar-2008 10:10 1.0M 
[   ]AgileRss_windowsNoJVM_3_1.exe09-Apr-2008 14:59 13M 
[   ]AltoBAsetup+.exe10-Oct-2003 00:00 1.6M 
[   ]AuctionFeeCalcSetup.EXE10-Oct-2003 00:00 582K 
[   ]BBSMonitorInstall.EXE19-May-2004 00:00 2.0M 
[   ]BrowSetup.exe24-Sep-2003 00:00 865K 
[   ]CSGSetup.exe21-Jul-2003 00:00 767K 
[   ]CancellationChecker.exe19-Feb-2004 00:00 40K 
[   ]ClipFetcherSetup.exe04-May-2009 13:01 509K 
[   ]ClocksyncSetup.EXE11-Apr-2005 00:00 587K 
[   ]CokieEditorSetup.exe12-Apr-2004 00:00 967K 
[   ]CommentsBar_MySpace_Comments.exe04-May-2009 16:46 1.4M 
[   ]DragonFire.zip04-May-2009 14:50 187K 
[   ]EPS_setup.exe04-May-2009 13:17 572K 
[   ]ESP11_EN.exe03-May-2004 00:00 957K 
[   ]EtherBossMSN_trial_setup.exe26-Nov-2003 00:00 923K 
[   ]ExpressTimesyncSetup.EXE03-Jun-2005 00:00 1.0M 
[   ]FGTimeSyncSetup.exe23-Jul-2007 14:20 112K 
[   ]FastPhotos_Setup_1607.exe27-May-2004 00:00 3.7M 
[   ]IA11.EXE01-Mar-2004 00:00 2.4M 
[   ]IEtoolbar.exe25-Aug-2003 00:00 3.7M 
[   ]IMDb-Grab-v0_04.zip16-Oct-2003 00:00 3.0M 
[   ]INAV_Home.exe01-Aug-2005 00:00 2.7M 
[   ]InTime.zip08-Jan-2007 10:31 738K 
[   ]IntelliMote.exe03-May-2004 00:00 738K 
[   ]KazaAsetup.exe10-May-2004 00:00 3.3M 
[   ]KingMailer.exe19-Jul-2003 00:00 540K 
[   ]LinkRepositoryDemoSetup.exe01-Mar-2004 00:00 882K 
[   ]LiveHumanSetup.exe19-Jul-2003 00:00 520K 
[   ]MKtoolbar_setup.zip04-May-2009 16:08 1.7M 
[   ]MltgIMSetup.exe25-Sep-2003 00:00 683K 
[   ]MonConIntV101.zip12-Apr-2004 00:00 2.0M 
[   ]MonConIntV103.zip14-Dec-2004 00:00 2.0M 
[   ]MyIPSuite.exe14-Sep-2003 00:00 931K 
[   ]MyWhois-1_0-setup.exe18-Mar-2004 00:00 414K 
[   ]NetExpense.exe11-Dec-2003 00:00 1.3M 
[   ]PopUpStopperProfessional.exe15-Apr-2005 00:00 1.6M 
[   ]PrivacyGuardSetup.exe10-Nov-2003 00:00 1.2M 
[   ]ProxySwitcherLite.exe15-Sep-2003 00:00 893K 
[   ]ProxySwitcherStandard.exe15-Sep-2003 00:00 1.0M 
[   ]PublicDesktop.zip06-Apr-2004 00:00 1.4M 
[   ]QKL_Popup_Blocker_Setup.exe24-Aug-2003 00:00 299K 
[   ]RealWebInfo.exe14-Sep-2003 00:00 793K 
[   ]SP-Installer.exe10-Oct-2003 00:00 5.0M 
[   ]SetupE.exe29-Mar-2004 00:00 1.5M 
[   ]SetupPro.zip07-Sep-2003 00:00 4.1M 
[   ]ShareFindFree.msi11-Oct-2003 00:00 2.9M 
[   ]SimpleDesktop-install.exe04-Oct-2005 00:00 16M 
[   ]SnipeRightPro.exe23-Aug-2003 00:00 2.2M 
[   ]TansuTCPSetup.zip09-Jan-2006 00:00 1.0M 
[   ]TimeSynchronizerN.zip10-May-2004 00:00 27K 
[   ]TinCam.exe17-Aug-2003 00:00 4.9M 
[   ]TraceRoute.exe03-Oct-2003 00:00 1.5M 
[   ]Ultimate_Privacy_setup.exe20-Nov-2003 00:00 828K 
[   ]WVDSetup.exe04-May-2009 13:38 5.2M 
[   ]WinPing.zip04-May-2009 18:20 728K 
[   ]WinTrace.zip25-Dec-2008 15:33 616K 
[   ]WorldTime.exe03-Oct-2003 00:00 3.0M 
[   ]aardm11c.zip08-Dec-2000 00:00 1.1M 
[   ]acenews.exe14-Apr-2001 00:00 328K 
[   ]adkiller.exe01-Aug-2003 00:00 577K 
[   ]admaker.exe04-May-2009 10:11 196K 
[   ]adsgone.exe11-Dec-2003 00:00 107K 
[   ]advtimesync.exe04-Jan-2008 18:26 2.4M 
[TXT]adwordssecretsplus.xml04-May-2009 15:16 5.8K 
[   ]aet_tracer_pro.exe11-Jan-2004 00:00 10M 
[   ]aftercon.zip17-Apr-2001 00:00 539K 
[   ]agfull400.exe21-Jul-2003 00:00 968K 
[   ]agpo.exe16-Jun-2003 00:00 489K 
[   ]ajmsc24.exe11-Dec-2003 00:00 2.9M 
[   ]alertm28.zip11-Oct-1999 00:00 542K 
[   ]alexabooster3_2_install.zip08-Mar-2005 00:00 744K 
[   ]amafs_version198.exe14-Sep-2005 00:00 1.8M 
[   ]ant.zip07-Sep-2004 00:00 791K 
[   ]apptotal.zip27-Jun-2003 00:00 15K 
[   ]astation.exe15-Jul-2002 00:00 2.7M 
[   ]atzsn5.exe23-Jul-2004 00:00 1.0M 
[   ]atzsvr5.exe19-Sep-2002 00:00 2.7M 
[   ]aucmo_10.zip30-Oct-2000 00:00 1.6M 
[   ]avoider.zip22-Jun-2004 00:00 1.3M 
[   ]aw.exe09-Jun-2003 00:00 1.1M 
[   ]awn95v55.zip09-Feb-1999 00:00 2.1M 
[   ]axion07b.zip20-Sep-1999 00:00 656K 
[   ]backlink-checker.zip04-May-2009 12:48 916K 
[   ]bazookasetup.exe11-Mar-2004 00:00 718K 
[   ]bb_ent_install.exe09-Sep-2003 00:00 1.9M 
[   ]bcatalog.zip03-Aug-2003 00:00 798K 
[   ]bookstp.exe11-Dec-2003 00:00 704K 
[   ]bpspt101.zip12-Dec-2002 00:00 7.7M 
[   ]brny11nr.zip18-Jun-1999 00:00 436K 
[   ]bs2.exe23-Jul-2007 14:37 2.8M 
[   ]capsa405pro_demo_build164.exe16-Nov-2004 00:00 3.1M 
[   ]cerber11.exe07-Jan-2003 00:00 1.4M 
[   ]cgim_c21.zip22-Feb-1998 00:00 447K 
[   ]chknpng1.zip30-Jul-1999 00:00 399K 
[   ]cip500.zip24-Mar-1999 00:00 113K 
[   ]citrus19.exe18-Dec-2003 00:00 1.8M 
[   ]climate2installer.exe13-Sep-2003 00:00 2.2M 
[   ]cmsetup.exe14-Apr-2004 00:00 586K 
[   ]country1.zip16-Sep-1999 00:00 828K 
[   ]cspro.zip28-Mar-2003 00:00 2.5M 
[   ]d4setup-2000.exe19-Feb-2003 00:00 1.1M 
[   ]deploy.zip13-Feb-2004 00:00 3.9M 
[   ]detectv.zip30-Dec-2002 00:00 1.2M 
[   ]dexptv10.zip27-Jun-1999 00:00 313K 
[   ]dirupd10.zip18-Feb-1999 00:00 1.1M 
[   ]dlsetup.exe21-Jul-2003 00:00 523K 
[DIR]dm/28-Jan-2009 04:24 -  
[   ]dpilot107.zip12-Oct-2003 00:00 200K 
[   ]ds020804.zip19-Aug-2003 00:00 5.5M 
[   ]dtracea.zip12-Jan-1999 00:00 125K 
[   ]e2s13s.zip13-Mar-2003 00:00 9.5M 
[   ]eZphoto1_1.exe20-Nov-2003 00:00 5.3M 
[   ]eZphoto1_2_1.EXE11-Dec-2003 00:00 5.0M 
[   ]easytvradio_trial.zip04-May-2009 16:12 4.3M 
[   ]ecleaner_simtel.exe01-Aug-2003 00:00 1.2M 
[   ]ed_v1.zip05-May-2003 00:00 1.0M 
[   ]ehs_v3.zip06-May-2003 00:00 1.3M 
[   ]electnet.zip27-Oct-1999 00:00 2.0M 
[   ]eliminad.exe27-Nov-2003 00:00 2.6M 
[   ]emailip1.zip11-Aug-2000 00:00 461K 
[   ]ent3.zip15-Aug-2003 00:00 1.6M 
[   ]entryle.exe21-Jul-2003 00:00 560K 
[   ]etime011.exe29-Nov-2002 00:00 209K 
[   ]evrox.exe09-Jun-2003 00:00 1.3M 
[   ]extract110.zip15-Aug-2003 00:00 520K 
[   ]ezsaveflash.exe03-Jun-2004 00:00 1.1M 
[   ]ezsmap01.exe27-Mar-2003 00:00 1.8M 
[   ]ezwpinst.exe07-Mar-2008 10:51 827K 
[   ]fd343.exe10-Jul-2003 00:00 1.5M 
[   ]fdns35.zip04-Jan-2001 00:00 827K 
[   ]fdrinst.exe02-Jun-2001 00:00 668K 
[   ]ff_setup.exe10-May-2005 00:00 367K 
[   ]fing031b.zip08-Mar-1996 00:00 472K 
[   ]fingds10.zip25-May-1996 00:00 49K 
[   ]finger32.zip08-Mar-1996 00:00 36K 
[   ]formfiller.exe08-Aug-2003 00:00 1.1M 
[   ]free_isp.zip29-Apr-2001 00:00 5.3K 
[   ]freecam.exe27-Apr-2004 00:00 4.2M 
[   ]freetemp.exe16-Jun-2003 00:00 463K 
[   ]ftgsetup.exe11-Dec-2003 00:00 365K 
[   ]ftopiab4.zip10-May-1999 00:00 631K 
[   ]gamesly.zip09-Apr-2004 00:00 2.5M 
[   ]genius32.zip19-Oct-2001 00:00 2.2M 
[   ]getrt502.exe21-Jul-2003 00:00 2.4M 
[   ]gluedon.exe09-Jun-2003 00:00 883K 
[   ]goBCL.exe25-May-2004 00:00 1.2M 
[   ]gsm_setup.exe04-May-2009 13:21 1.3M 
[   ]harvex.exe07-Aug-2003 00:00 1.5M 
[   ]host100a.zip08-Mar-1996 00:00 417K 
[   ]hostinfo.zip08-Mar-1996 00:00 22K 
[   ]hssgen.zip30-Aug-2004 00:00 1.4M 
[   ]htmltortf_easy.zip03-Jun-2005 00:00 446K 
[   ]hypcht15.zip10-Nov-2000 00:00 550K 
[   ]i2esetup.exe25-Jul-2003 00:00 15M 
[   ]iad.zip08-Jul-2003 00:00 1.4M 
[   ]iclean10t.exe22-Jan-2003 00:00 2.4M 
[   ]icom340.exe13-May-2002 00:00 721K 
[   ]icpack.exe12-Nov-2001 00:00 2.6M 
[   ]iemaximizer23.exe22-Jul-2003 00:00 424K 
[   ]ietoolkit.exe06-Apr-2004 00:00 1.1M 
[   ]iew.exe15-Oct-2003 00:00 1.1M 
[   ]iitd206.exe29-May-2003 00:00 1.5M 
[   ]ilinst.zip24-Feb-1998 00:00 555K 
[   ]inetpad4.zip29-Sep-1999 00:00 425K 
[   ]install-ipjudo.exe02-Jan-2007 10:53 4.1M 
[   ]internet-eraser-setup.exe23-Jun-2004 00:00 872K 
[   ]internetc100.exe01-Apr-2003 00:00 1.3M 
[   ]internetrefresher.exe25-Sep-2003 00:00 356K 
[   ]ip-madness-demo.zip06-May-2003 00:00 2.3M 
[   ]ip-tools.exe20-Jul-2003 00:00 1.1M 
[   ]ip_1.zip29-Oct-2001 00:00 55K 
[   ]ipbooken.exe19-Jan-2004 00:00 423K 
[   ]ipcinst.exe14-Dec-2004 00:00 1.2M 
[   ]ipl.zip06-Aug-2002 00:00 699K 
[   ]iplite10.zip10-Aug-2003 00:00 253K 
[   ]ipmtr46.zip26-Dec-2002 00:00 915K 
[   ]ippro.exe07-Aug-2003 00:00 2.6M 
[   ]iptoolb2.zip11-Dec-1997 00:00 672K 
[   ]ipw.zip09-Mar-2001 00:00 2.6M 
[   ]ir.exe09-Jun-2003 00:00 1.4M 
[   ]irad.exe09-Jun-2003 00:00 1.4M 
[   ]itime41.zip06-Oct-2000 00:00 85K 
[   ]iusage77.zip17-Feb-2005 00:00 1.0M 
[   ]iwan9x11.zip20-Nov-2002 00:00 4.8M 
[   ]iwan11.zip20-Nov-2002 00:00 2.3M 
[   ]jocpr210.exe18-Apr-2002 00:00 859K 
[   ]keystertrial.zip18-Apr-2003 00:00 6.8M 
[   ]khiraset.exe03-Dec-2001 00:00 3.0M 
[   ]kidentd.zip05-Jul-1999 00:00 338K 
[   ]ladega.exe18-Jul-2001 00:00 3.6M 
[   ]latomclk.zip29-Sep-2005 00:00 787K 
[   ]li2ex100.zip12-Jul-2000 00:00 451K 
[   ]linkassistant.zip04-May-2009 16:50 37M 
[   ]linkp.zip28-Mar-2003 00:00 30K 
[TXT]linuxguidepad.xml04-May-2009 11:03 16K 
[   ]lping10.zip31-May-2000 00:00 27K 
[   ]lwsd102.exe02-Dec-2002 00:00 1.2M 
[   ]mNTr.exe07-Feb-2006 00:00 1.6M 
[   ]magellan.exe04-Apr-2003 00:00 13M 
[   ]mctb100.zip05-Jun-2001 00:00 1.3M 
[   ]menubld.zip28-Mar-2003 00:00 107K 
[   ]mesetup.zip20-Mar-2002 00:00 848K 
[   ]meteos32.exe21-Oct-2002 00:00 1.1M 
[   ]metrcr10.zip20-Oct-2000 00:00 934K 
[   ]mmuck153.zip29-Mar-2001 00:00 1.0M 
[   ]monconintv106b.zip15-Aug-2007 09:01 3.5M 
[   ]mp3g09.exe07-Nov-2003 00:00 864K 
[   ]mprxy11.zip08-Nov-2000 00:00 166K 
[   ]mrinternet.exe11-Feb-2004 00:00 206K 
[   ]mynetchecker.zip19-Dec-2008 10:04 298K 
[   ]mysweeper.exe22-Oct-2003 00:00 1.0M 
[   ]nask11.zip21-Mar-2005 00:00 222K 
[   ]neot202.zip20-Jul-1999 00:00 1.1M 
[   ]netgadgets.exe24-Jan-2003 00:00 2.4M 
[   ]netinfo.zip01-Apr-2009 11:08 1.8M 
[   ]netlab14.zip21-Sep-1999 00:00 430K 
[   ]netobs.zip12-Oct-1998 00:00 1.0M 
[   ]netos151.zip03-Jun-1999 00:00 367K 
[   ]netpeeker252.zip25-Mar-2003 00:00 1.3M 
[   ]netscanner.exe24-Jul-2003 00:00 1.3M 
[   ]netspyhunter.exe13-Mar-2003 00:00 294K 
[   ]netwatcher.exe30-Jun-2005 00:00 803K 
[   ]newstick112.exe15-Aug-2003 00:00 421K 
[   ]nlaunch1.zip21-Apr-1999 00:00 365K 
[   ]nt32429.zip02-Nov-1998 00:00 918K 
[   ]ntsntp22.zip08-Mar-1996 00:00 161K 
[   ]ntstpp10.zip15-Sep-2000 00:00 937K 
[   ]nucleotime.exe15-Nov-2004 00:00 952K 
[   ]oip-setup.zip19-May-2004 00:00 7.6M 
[   ]ostronet.exe12-Aug-2002 00:00 4.8M 
[   ]ow-setup.zip19-May-2004 00:00 7.7M 
[TXT]packetpro.xml04-May-2009 12:30 23K 
[   ]padkiller.exe01-Aug-2003 00:00 529K 
[   ]pady26.zip22-May-2003 00:00 1.1M 
[   ]pahomerouter12setup.exe03-Mar-2003 00:00 7.1M 
[   ]passcrypt.zip10-Jun-2003 00:00 767K 
[   ]pcnetch.zip22-Dec-2003 00:00 659K 
[   ]pcsnt412.zip17-Jan-2002 00:00 1.1M 
[   ]plansh23.zip08-Jun-1999 00:00 2.2M 
[   ]pngpl203.zip08-Jan-1999 00:00 475K 
[   ]popscan.zip31-Mar-2003 00:00 220K 
[   ]popup_setup_-vsimtel.exe31-Jul-2003 00:00 2.2M 
[   ]popupblockadetrial.exe18-Mar-2003 00:00 1.3M 
[   ]popupblockzoneinstall.exe15-Apr-2003 00:00 456K 
[   ]post-it.zip03-Jan-2000 00:00 1.5M 
[   ]ppdns35.zip06-Oct-1999 00:00 2.3M 
[   ]pplus_us.exe15-Jul-2002 00:00 920K 
[   ]pppro.zip23-Jun-2003 00:00 1.4M 
[   ]pq_201.zip29-Dec-1999 00:00 1.3M 
[   ]price26.exe11-Dec-2003 00:00 1.6M 
[   ]privacy-eraser-pro-setup.exe23-Jun-2004 00:00 1.4M 
[   ]proxychk.zip27-Nov-2000 00:00 389K 
[   ]proxyp37.zip02-Oct-2000 00:00 3.9M 
[   ]pt.zip08-Mar-1996 00:00 34K 
[   ]ptsetup.exe20-Nov-2002 00:00 584K 
[   ]quikfn.zip27-Oct-1997 00:00 6.9K 
[   ]qvtnte50.zip10-Jan-2001 00:00 7.2M 
[   ]remailuti.exe18-Mar-2003 00:00 461K 
[   ]rm_setup.exe05-Jul-2001 00:00 1.8M 
[   ]robotpack.zip09-Sep-2003 00:00 5.7M 
[   ]rv.exe29-Apr-2001 00:00 488K 
[   ]rwpvtnet.zip27-Sep-1999 00:00 1.3M 
[   ]safeip281beta.zip17-Feb-2003 00:00 2.9M 
[   ]sbidq11.exe09-Mar-2005 00:00 522K 
[   ]sellinks.zip27-Jul-2003 00:00 90K 
[   ]setup.exe24-Aug-2003 00:00 2.1M 
[   ]setup_pm.zip31-Jul-2003 00:00 1.9M 
[   ]setups2h0981a.exe24-Dec-2002 00:00 1.4M 
[   ]sgsetup.zip16-Sep-2002 00:00 1.1M 
[   ]shsetup.exe27-May-2004 00:00 4.0M 
[   ]sitrace_setup.exe26-Jul-2007 07:55 299K 
[   ]smartprotector.exe20-Aug-2003 00:00 468K 
[   ]smartprotectorprosetup.exe12-Jun-2003 00:00 652K 
[   ]snaresetup.exe03-Nov-2003 00:00 1.0M 
[   ]spb40.exe19-Jul-2003 00:00 627K 
[   ]spk.exe22-Oct-2003 00:00 915K 
[   ]splanner.exe16-Jun-2003 00:00 477K 
[   ]spna.zip08-Jul-2003 00:00 504K 
[   ]spokfb71.zip28-Dec-1999 00:00 616K 
[   ]sptimesync23_x86.zip04-Apr-2006 00:00 82K 
[   ]spywareprotection_ft.exe30-Dec-2004 00:00 3.2M 
[   ]ss_install.exe24-Mar-2004 00:00 840K 
[   ]ssnoop20.exe10-Aug-2003 00:00 675K 
[   ]staytun1.zip22-Mar-2004 00:00 438K 
[   ]stopwatch_setup.exe06-Dec-2008 12:21 619K 
[   ]stpng31.zip31-Aug-1999 00:00 27K 
[   ]subn253.zip05-Apr-1999 00:00 167K 
[   ]surfnow.exe16-Apr-2002 00:00 707K 
[   ]sw3.zip30-May-2003 00:00 1.3M 
[   ]swiss_setup.exe26-Jan-2004 00:00 9.5M 
[   ]telsrv15.zip20-Jul-1999 00:00 1.3M 
[   ]th17.zip21-May-2002 00:00 644K 
[   ]timecl09.zip29-Mar-2000 00:00 1.1M 
[   ]timese09.zip29-Mar-2000 00:00 1.7M 
[   ]titlev10.zip07-Jun-1998 00:00 1.5M 
[   ]tm_3_32.exe17-Mar-2003 00:00 444K 
[   ]tpsafe.exe13-May-2004 00:00 144K 
[   ]traceroute.zip11-Apr-2005 00:00 92K 
[   ]trekt105.zip26-Apr-2001 00:00 1.7M 
[   ]tsnipe.exe19-Jul-2003 00:00 1.5M 
[   ]ttimesync-setup.exe15-Aug-2006 00:00 554K 
[   ]txtrial5.exe02-Aug-2003 00:00 1.3M 
[   ]tzo211.zip07-Apr-2003 00:00 2.8M 
[   ]udhsb100.zip01-Jun-2000 00:00 825K 
[TXT]unixposterpad.xml04-May-2009 11:12 16K 
[   ]urlman.zip10-Oct-2000 00:00 423K 
[   ]vchat247.zip21-Mar-2003 00:00 3.8M 
[   ]vchat257.zip15-Jan-2004 00:00 785K 
[   ]vishbare.exe11-Dec-2002 00:00 1.7M 
[   ]visualwhois2004-15.exe03-Jun-2004 00:00 2.5M 
[   ]vvm200.zip23-Dec-2000 00:00 5.0M 
[   ]vvp200.zip23-Dec-2000 00:00 5.9M 
[   ]wcamvi10.zip02-Jan-2001 00:00 948K 
[   ]wcs102.exe05-Jun-2001 00:00 1.5M 
[   ]wct20.zip07-May-2001 00:00 2.3M 
[   ]weath10.zip19-Mar-1999 00:00 1.0M 
[   ]weatheraloud.exe07-Jul-2003 00:00 4.4M 
[   ]webcam_t.exe21-Jan-2003 00:00 1.1M 
[   ]webcams-watcher.zip04-May-2009 09:56 904K 
[   ]webclonerpro.exe07-Aug-2003 00:00 2.3M 
[   ]webl0199.zip23-Jan-1999 00:00 364K 
[   ]weblin10.zip07-Nov-2001 00:00 569K 
[   ]webshots.zip04-Apr-2003 00:00 57K 
[   ]websm240.zip05-Oct-1999 00:00 1.8M 
[   ]websmssetup.exe23-Jun-2003 00:00 811K 
[   ]websy140.zip01-Jul-2003 00:00 1.3M 
[   ]wg9x401.zip10-Oct-2000 00:00 3.6M 
[   ]whereisi.zip02-Apr-2002 00:00 653K 
[   ]whoisnot.zip29-Jan-1999 00:00 1.5M 
[   ]windis32.zip10-Dec-2002 00:00 321K 
[   ]winfm11.zip25-Jun-2001 00:00 3.8M 
[   ]winip220.zip23-Mar-2000 00:00 258K 
[   ]wj98v115.zip11-May-1999 00:00 1.2M 
[   ]wmud112.zip27-Apr-2000 00:00 222K 
[   ]wodHttpDLX.exe08-Nov-2003 00:00 2.2M 
[   ]wrck2002.zip17-Dec-2002 00:00 2.7M 
[   ]wrldfl31.zip24-Apr-2003 00:00 1.0M 
[   ]wsa.exe13-Mar-2003 00:00 860K 
[   ]wtsetup.exe30-Sep-2003 00:00 877K 
[   ]wttrtsetup.exe13-Oct-2003 00:00 9.1M 
[   ]wug.zip29-Apr-2003 00:00 641K 
[   ]wyrmnt23.zip10-Dec-2002 00:00 160K 
[   ]x-win613.exe11-Apr-2005 00:00 19M 
[   ]xns51_setup.exe26-Jul-2004 00:00 441K 
[   ]xtradns.zip11-Sep-2000 00:00 139K 
[   ]ysu31.zip12-Oct-2001 00:00 368K 

Apache/2.2.15 (Scientific Linux) Server at sunsite.icm.edu.pl Port 80